Flag for United Kingdom Weather past 2 weeks in Ipswich, England, United Kingdom

Now
61 °F

Passing clouds.


Feels Like: 61 °F
Forecast: 52 / 67 °F
Wind: 13 mph from Southwest

Location: Wattisham

Current Time: Aug 30, 2014 at 1:55:32 AM

Latest Report: Aug 30, 2014 at 12:50 AM


Visibility: N/A

Pressure: 29.89 "Hg

Humidity: 83%

Dew point: 55 °F

Location of IpswichLocation

Historic Weather in Ipswich — Graph

°F

Ipswich temperature yesterday

Maximum temperature yesterday: 68 °F (at 12:50 PM)
Minimum temperature yesterday: 54 °F (at 4:50 AM)
Average temperature yesterday: 61 °F

Past Weeks' High & Low Weather Summary

 TemperatureHumidityPressure
High72 °F (Aug 28, 4:50 PM)100% (Aug 14, 11:50 PM)30.12 "Hg (Aug 14, 11:50 PM)
Low41 °F (Aug 21, 5:50 AM)40% (Aug 17, 5:50 PM)29.53 "Hg (Aug 25, 11:50 PM)
Average57 °F75%29.89 "Hg
* Reported Aug 14 11:50 PM — Aug 29 11:50 PM, Ipswich, Weather by CustomWeather, © 2014

Note: Actual official high and low records may vary slightly from our data, if they occured in-between our weather recording intervals... More about our weather records

Advertising

Ipswich weather history for previous 24 hours

 ConditionsComfort  
Time TempWeatherWind HumidityBarometerVisibility
11:50 PM
Aug 29
63 °FOvercast.16 mph77%29.89 "HgN/A
10:50 PM63 °FPassing clouds.15 mph77%29.89 "HgN/A
9:50 PM61 °FPassing clouds.12 mph83%29.89 "HgN/A
7:50 PM63 °FPartly sunny.14 mph77%29.89 "HgN/A
6:50 PM64 °FBroken clouds.18 mph68%29.86 "HgN/A
5:50 PM66 °FPartly sunny.14 mph60%29.86 "HgN/A
4:50 PM68 °FBroken clouds.17 mph53%29.86 "HgN/A
3:50 PM68 °FBroken clouds.18 mph53%29.86 "HgN/A
2:50 PM68 °FBroken clouds.17 mph53%29.89 "HgN/A
1:50 PM66 °FPartly sunny.20 mph56%29.89 "HgN/A
12:50 PM68 °FBroken clouds.17 mph56%29.89 "HgN/A
11:50 AM66 °FBroken clouds.18 mph60%29.89 "HgN/A
10:50 AM64 °FScattered clouds.15 mph64%29.89 "HgN/A
9:50 AM63 °FScattered clouds.18 mph77%29.89 "HgN/A
9:30 AM63 °FScattered clouds.17 mph77%29.89 "HgN/A
8:50 AM61 °FScattered clouds.14 mph83%29.89 "HgN/A
7:50 AM57 °FScattered clouds.13 mph94%29.89 "HgN/A
6:50 AM54 °FPassing clouds.9 mph100%29.89 "HgN/A
5:50 AM54 °FFog.8 mph100%29.89 "Hg5 mi
4:50 AM54 °FClear.8 mph100%29.89 "Hg10 mi
3:50 AM55 °FPassing clouds.7 mph94%29.89 "HgN/A
2:50 AM55 °FCool.8 mph94%29.89 "HgN/A
1:50 AM55 °FClear.8 mph94%29.89 "Hg10 mi
Weather by CustomWeather, © 2014

See weather overviewHow to use our weather pages